Flag for U.S.A. Weather past 2 weeks in Knoxville, Tennessee, U.S.A.

Now
68 °F

Heavy rain. Fog.


Feels Like: 68 °F
Forecast: 67 / 77 °F
Wind: 9 mph from Southwest

Location: McGhee Tyson Airport

Current Time: Jul 2, 2015 at 8:56:22 AM

Latest Report: Jul 2, 2015 at 8:00 AM


Visibility: 2 mi

Pressure: 29.98 "Hg

Humidity: 93%

Dew point: 66 °F

Location of KnoxvilleLocation

Historic Weather in Knoxville — Graph

°F

Knoxville temperature yesterday

Maximum temperature yesterday: 79 °F (at 12:53 PM)
Minimum temperature yesterday: 68 °F (at 3:53 AM)
Average temperature yesterday: 72 °F

Past Weeks' High & Low Weather Summary

 TemperatureHumidityPressure
High95 °F (Jun 26, 3:53 PM)97% (Jun 19, 4:53 AM)30.13 "Hg (Jun 19, 4:53 AM)
Low59 °F (Jun 29, 5:53 AM)36% (Jun 26, 4:56 PM)29.79 "Hg (Jun 27, 2:53 PM)
Average78 °F71%29.98 "Hg
* Reported Jun 17 6:53 AM — Jul 2 6:53 AM, Knoxville, Weather by CustomWeather, © 2015

Note: Actual official high and low records may vary slightly from our data, if they occured in-between our weather recording intervals... More about our weather records

Advertising

Knoxville weather history for previous 24 hours

 ConditionsComfort  
Time TempWeatherWind HumidityBarometerVisibility
6:53 AM
Thu, Jul 2
68 °FLight rain. Passing clouds.8 mph90%29.94 "Hg9 mi
5:53 AM67 °FLight rain. Mostly cloudy.7 mph93%29.93 "Hg8 mi
4:53 AM67 °FMostly cloudy.8 mph90%29.93 "Hg9 mi
3:53 AM68 °FPassing clouds.9 mph87%29.95 "Hg10 mi
2:53 AM68 °FPassing clouds.9 mph90%29.95 "Hg10 mi
1:53 AM69 °FMostly cloudy.8 mph87%29.97 "Hg10 mi
12:53 AM69 °FMostly cloudy.14 mph87%29.98 "Hg10 mi
11:53 PM
Wed, Jul 1
69 °FMostly cloudy.13 mph90%29.98 "Hg10 mi
10:53 PM69 °FMostly cloudy.9 mph90%29.97 "Hg9 mi
9:53 PM69 °FBroken clouds.10 mph90%29.95 "Hg9 mi
7:53 PM71 °FMostly cloudy.12 mph84%29.95 "Hg7 mi
6:53 PM71 °FLight rain. Fog.14 mph87%29.97 "Hg6 mi
5:53 PM73 °FMostly cloudy.14 mph84%29.97 "Hg6 mi
4:53 PM73 °FLight rain. Cloudy.15 mph81%29.97 "Hg7 mi
3:53 PM78 °FMore clouds than sun.15 mph74%29.96 "Hg10 mi
2:53 PM78 °FCloudy.9 mph71%29.96 "Hg7 mi
1:53 PM78 °FCloudy.8 mph74%29.98 "Hg7 mi
12:53 PM79 °FMore clouds than sun.9 mph74%29.98 "Hg7 mi
11:53 AM78 °FMore clouds than sun.9 mph74%30.02 "Hg7 mi
10:53 AM75 °FCloudy.10 mph82%29.98 "Hg7 mi
10:01 AM74 °FBroken clouds.7 mph85%30.01 "Hg7 mi
8:53 AM72 °FMostly cloudy.9 mph87%29.97 "Hg7 mi
Weather by CustomWeather, © 2015

See weather overviewHow to use our weather pages